Temperature
26 23 22 23 23 24 24 23 23 22 22 21 20 19 19 18 18 17 18 18 18 18 18 18 18 18 18 18 18 18 18 18 18 18 17 17 17 16 16 16 15 15 15 15
23 23 25 26 26 26 25 23 22 22 22 21 20 19 19 18 18 18 18 18 18 18 18 18 18 18 18 18 18 18 18 18 18 18 17 17 16 16 16 15 15 15 15 15
24 25 28 28 27 25 24 23 22 22 21 20 20 19 19 19 19 19 19 19 19 19 18 18 18 18 18 19 19 19 19 18 18 18 17 17 16 16 16 15 15 15 15 14
25 27 28 27 27 25 23 24 24 23 20 18 19 18 19 19 18 18 18 19 19 19 19 19 19 19 19 19 19 19 19 19 18 18 17 17 16 16 16 15 15 15 14 14
25 27 27 27 27 26 24 24 23 21 19 18 18 18 18 19 18 18 18 19 19 19 19 19 19 19 19 19 19 19 19 19 18 18 17 17 16 16 16 15 15 15 14 14
26 27 27 27 27 26 24 22 20 17 17 18 18 18 18 18 19 19 19 20 20 20 20 20 20 20 20 20 20 19 19 19 18 18 17 17 17 16 16 15 15 15 14 14
25 25 26 26 26 25 24 21 20 19 17 18 18 19 18 19 20 20 20 20 21 21 20 20 20 20 20 20 20 20 19 19 18 18 18 17 17 16 16 15 15 14 14 14
23 24 25 26 25 24 24 21 20 20 19 18 19 18 19 21 21 22 22 22 22 21 21 21 21 21 21 21 20 20 20 19 19 18 18 17 17 16 16 16 15 15 14 14
23 24 26 27 26 26 25 23 21 19 18 18 18 19 20 22 21 21 22 22 22 22 22 22 22 22 21 21 21 21 20 20 19 19 18 18 17 17 16 16 15 15 14 14
23 23 25 26 25 25 24 23 20 19 19 19 19 19 19 21 21 21 21 22 22 22 22 22 22 22 22 22 21 21 21 20 19 19 18 18 18 17 17 16 16 15 15 14
22 22 23 24 24 24 24 23 20 18 18 18 18 19 20 20 20 20 21 23 23 23 23 23 23 23 22 22 22 21 21 20 20 19 19 19 18 18 17 17 16 16 15 14
23 20 21 23 23 24 23 23 20 20 20 18 18 19 22 21 21 21 22 23 24 24 24 24 24 23 23 22 22 21 21 21 20 20 19 19 18 18 17 17 17 16 15 14
23 20 20 21 21 22 23 23 21 19 18 18 19 20 22 21 22 23 24 24 24 25 24 24 24 23 23 23 22 22 21 21 20 20 20 19 19 18 18 17 17 16 15 15
22 20 20 21 21 22 22 23 23 20 18 19 20 21 21 21 21 22 24 25 25 25 25 24 24 24 23 23 23 22 22 21 21 20 20 19 19 18 18 17 17 16 16 15
21 21 22 22 23 23 23 24 24 22 21 20 20 21 21 21 21 23 24 25 25 25 25 25 24 24 24 23 23 22 22 21 21 21 20 20 19 19 18 17 17 16 16 16
20 22 23 23 24 23 23 23 23 22 21 21 21 20 20 21 22 23 24 24 24 25 25 25 25 24 24 24 23 23 22 22 21 21 21 20 19 19 18 18 17 17 16 16
20 20 21 21 22 23 22 22 21 19 18 19 18 18 18 19 20 21 22 23 23 24 24 24 24 24 24 24 23 23 23 22 21 21 21 20 19 19 18 18 17 17 17 16
20 19 18 19 21 22 20 20 21 19 18 18 18 18 18 18 19 20 21 22 23 23 23 24 24 24 24 24 23 23 22 22 21 21 20 20 19 19 18 18 17 17 17 16
18 18 18 17 19 20 20 20 19 18 17 17 17 18 18 19 19 18 19 20 21 22 22 23 23 23 23 23 23 22 22 21 21 20 20 20 19 19 18 18 17 17 16 16
16 16 17 17 18 19 19 19 19 18 17 17 17 17 18 18 16 16 17 19 20 21 21 21 22 22 22 22 22 21 21 21 20 20 20 20 19 18 18 18 17 17 16 16
17 16 16 16 17 18 18 18 19 18 17 17 18 18 18 17 16 16 17 18 19 19 19 19 20 20 20 20 20 20 20 19 20 19 19 19 18 18 17 17 16 16 16 15
17 16 16 16 16 17 17 17 17 17 18 18 18 18 18 17 16 16 17 17 17 18 18 18 18 18 18 18 18 18 18 18 18 18 17 17 17 16 16 16 15 15 15 15
16 16 15 15 16 16 16 17 18 18 18 18 18 18 17 16 16 16 16 16 16 16 16 16 17 17 17 16 17 16 16 16 16 16 16 16 15 15 15 15 14 14 14 14
16 15 14 14 15 15 16 17 18 18 18 18 18 17 17 16 16 16 16 16 16 16 16 16 16 16 15 15 15 15 15 15 15 14 14 14 14 14 14 13 13 13 13 13
16 15 14 14 15 15 16 17 17 17 17 17 17 17 16 16 16 16 15 15 15 15 15 14 14 14 14 14 14 14 14 14 13 13 13 13 12 12 12 12 12 12 12 12
15 15 14 14 15 14 15 16 17 17 16 16 16 16 16 16 15 15 15 14 14 14 14 14 13 13 13 13 12 12 12 12 12 12 12 12 11 11 11 11 11 11 11 11
Wind_Speed
3 0 7 12 10 10 6 3 2 2 2 2 3 3 4 5 6 7 6 7 8 9 8 8 9 10 9 9 9 8 7 6 5 4 4 3 3 3 3 4 7 7 7 8
4 9 18 15 10 7 4 2 1 0 1 3 1 2 3 5 6 8 9 10 9 8 8 9 10 10 9 9 9 8 8 7 6 4 4 3 3 3 3 3 5 7 7 7
8 12 10 4 2 3 0 4 5 4 2 4 3 3 2 3 4 5 8 8 9 12 12 11 11 10 10 10 10 10 9 8 7 6 3 3 3 3 2 2 2 4 6 6
7 7 4 4 1 3 1 4 9 7 5 1 1 2 5 2 3 6 8 9 10 11 11 11 12 12 12 12 11 10 10 9 7 7 6 5 4 3 3 3 3 3 4 6
7 5 4 3 0 3 4 3 6 5 5 4 4 1 7 1 3 7 9 11 11 12 13 13 13 14 14 13 12 11 10 9 8 8 8 7 5 4 3 3 3 2 2 3
7 4 2 3 1 5 9 6 6 5 5 4 2 0 6 4 6 7 10 11 12 13 14 13 13 13 13 12 11 11 11 10 9 9 8 8 8 7 5 3 3 1 1 1
7 7 5 1 1 2 5 5 4 6 5 2 3 2 8 8 7 9 12 13 12 13 13 13 13 13 14 14 13 12 12 11 10 10 9 9 9 8 7 5 4 3 2 2
2 8 5 2 4 4 3 7 5 3 3 3 3 4 8 9 7 9 11 12 12 13 14 16 16 15 15 16 15 14 14 11 10 10 9 8 9 6 5 5 5 5 4 4
4 6 5 3 2 4 2 2 6 7 3 2 4 6 8 5 3 7 10 12 14 15 16 17 16 15 15 15 15 16 15 11 11 10 9 8 9 8 7 6 5 4 4 4
4 4 6 2 4 3 4 4 5 5 5 2 3 5 5 6 6 7 9 12 14 15 16 16 15 15 14 14 13 13 14 13 11 10 10 9 8 8 8 7 6 6 5 5
2 4 4 4 3 1 2 2 3 4 6 6 4 7 8 12 11 11 12 14 15 16 17 16 15 14 13 12 12 12 12 11 10 11 9 9 8 8 8 7 7 7 6 6
3 4 0 3 4 3 3 4 5 3 2 5 5 7 8 12 12 12 13 13 14 15 15 15 14 12 11 12 13 13 13 12 12 11 10 9 9 8 8 8 8 7 7 7
2 5 3 7 8 5 1 2 4 5 3 4 5 7 5 5 7 9 11 12 12 13 12 11 11 12 13 14 14 14 14 14 12 11 10 9 9 9 9 8 8 7 8 8
3 4 6 7 8 6 4 4 1 3 2 4 6 6 4 6 7 7 8 10 11 12 12 12 12 13 14 14 15 14 14 13 12 11 11 11 10 10 10 9 8 8 8 8
4 3 5 7 6 3 3 3 1 0 3 4 5 4 7 8 7 6 6 6 7 9 12 14 15 14 13 13 13 14 13 13 12 12 12 12 11 10 9 9 9 9 9 9
3 4 2 4 4 2 3 3 1 3 4 3 4 4 7 4 2 2 2 3 5 8 11 13 14 14 15 16 16 14 14 13 12 13 13 12 10 10 10 10 9 9 9 9
2 4 2 4 5 3 2 1 5 8 7 5 4 4 6 8 8 6 4 3 2 4 6 9 11 13 14 15 15 16 16 13 12 13 12 11 11 12 12 11 10 10 10 9
5 4 3 1 3 1 4 1 9 12 9 7 5 5 6 6 6 8 9 6 3 1 3 5 6 8 8 9 11 12 10 11 13 12 11 11 11 12 11 10 11 10 8 8
5 6 4 3 2 2 1 1 2 6 4 3 4 6 7 6 10 11 13 9 7 6 4 0 3 4 5 6 7 8 9 9 10 11 11 12 12 12 11 11 11 9 8 8
5 5 5 4 3 5 5 2 2 8 1 3 2 4 4 6 5 4 9 10 12 12 11 9 8 8 5 3 2 4 6 7 9 11 11 10 10 10 11 11 10 8 8 10
3 3 3 3 3 5 3 2 2 3 7 6 4 4 4 4 4 1 4 9 11 12 13 12 12 11 10 8 5 2 1 4 7 6 5 6 7 8 8 8 7 7 8 8
4 3 3 3 3 5 2 1 2 5 3 5 4 5 8 8 7 5 6 9 11 12 13 12 12 11 10 10 8 7 4 4 3 1 1 2 3 4 5 6 6 6 7 9
5 6 6 5 5 3 3 3 2 2 3 3 4 6 9 9 8 7 8 9 9 10 10 9 10 11 11 11 10 8 7 6 6 5 3 3 3 3 3 4 6 5 6 7
2 3 5 2 1 1 0 2 2 2 4 6 8 9 10 10 9 9 8 8 8 8 8 8 9 10 10 9 9 7 7 7 7 7 6 5 5 5 5 4 5 5 6 8
4 5 5 3 2 3 2 3 5 8 10 11 12 11 10 10 9 8 7 6 6 6 6 6 7 7 7 7 8 8 7 7 7 6 6 6 5 5 6 6 6 8 8 10
3 6 8 7 8 7 4 3 7 11 10 10 12 11 9 9 8 7 6 5 5 6 6 6 7 7 6 7 8 7 6 6 6 6 6 5 5 6 6 8 9 12 14 17
Wind_Direction
283 313 259 249 223 215 219 191 223 236 207 117 146 180 187 168 169 177 181 179 171 167 163 159 161 156 147 143 144 151 148 152 135 123 124 124 138 152 157 167 152 137 119 101
332 273 259 257 252 219 203 152 102 26 116 105 106 246 216 184 186 187 185 187 180 173 167 165 167 163 160 159 161 163 163 161 155 153 158 160 152 161 166 167 161 156 141 131
235 260 278 285 219 160 202 162 164 174 99 65 86 345 262 217 183 191 192 196 187 182 175 173 173 174 169 171 176 176 178 174 171 162 135 102 80 72 82 118 178 192 168 153
259 273 330 7 67 122 225 180 153 146 124 13 54 304 290 207 191 198 196 194 189 184 179 181 179 180 182 185 185 182 182 181 178 163 150 147 148 156 179 180 195 211 192 173
272 305 336 328 250 124 158 116 106 117 110 63 15 24 296 242 212 217 203 195 192 188 186 188 187 188 189 190 188 187 184 185 182 171 161 150 147 158 160 149 161 200 234 192
269 283 243 249 275 133 129 89 58 52 67 38 310 92 288 233 214 210 204 199 191 190 191 192 193 191 193 194 191 186 184 189 183 174 166 159 159 164 160 164 177 221 269 181
322 312 292 233 20 103 125 99 28 4 18 294 277 257 259 247 222 199 198 199 194 191 191 194 196 195 196 196 195 190 185 189 184 177 174 172 171 172 176 184 189 194 190 178
279 289 273 233 183 190 183 136 157 204 203 277 317 266 265 265 234 196 190 193 193 193 194 198 202 200 198 196 194 189 187 187 183 180 181 178 171 169 173 181 178 182 190 195
204 263 290 253 178 136 122 182 165 132 115 99 281 288 300 286 204 181 185 187 194 196 198 201 204 201 196 193 192 189 186 184 183 182 177 178 177 174 175 179 176 181 192 190
167 258 296 312 54 31 144 144 81 105 143 184 261 265 248 246 221 197 194 196 200 199 200 203 203 200 197 193 188 183 180 181 181 178 180 186 186 184 181 179 187 192 196 186
167 201 313 24 54 309 28 55 95 130 154 153 210 257 224 214 216 209 208 204 202 201 201 202 203 199 191 182 176 176 177 174 176 181 182 179 184 186 184 189 201 203 206 204
217 144 218 286 274 254 181 168 139 137 237 165 177 257 249 204 210 206 212 213 207 203 201 200 196 185 177 176 174 176 178 177 181 181 177 180 183 183 188 199 209 209 211 212
164 114 69 344 333 333 306 215 158 141 131 166 175 255 272 216 224 219 214 210 207 204 198 191 182 178 179 179 179 180 182 184 183 178 178 182 186 189 197 205 208 207 208 213
143 132 160 198 232 247 268 282 265 112 160 233 226 239 274 235 229 228 216 203 199 197 188 183 182 183 183 182 182 184 188 187 184 181 181 188 195 197 201 204 206 208 208 211
115 171 211 221 233 214 238 273 303 152 202 200 252 236 244 233 215 214 213 197 181 181 180 182 183 184 186 186 189 190 192 191 187 184 190 198 199 198 199 203 208 211 212 216
119 172 244 288 278 281 282 298 13 37 21 36 32 354 319 325 47 72 106 145 168 179 183 184 184 185 190 193 194 195 197 196 188 190 199 199 194 196 201 206 208 210 215 218
133 142 145 271 299 27 299 276 105 83 48 63 59 325 340 21 37 30 30 82 141 168 173 182 187 192 196 199 196 199 202 195 192 198 201 197 195 199 206 207 206 211 215 216
138 126 142 216 24 266 259 346 111 98 66 58 59 18 23 42 40 34 24 39 43 73 156 185 195 199 201 197 198 199 193 189 195 200 203 200 198 204 205 204 209 213 212 213
137 138 129 128 153 260 287 342 137 112 59 16 63 39 37 21 36 24 11 24 40 46 45 186 202 204 206 209 204 188 189 191 195 202 204 202 200 203 204 208 214 212 208 215
52 91 115 120 142 223 237 297 155 109 111 262 118 76 50 45 54 350 352 23 34 36 36 34 33 36 26 317 223 180 197 197 211 216 213 207 200 201 206 214 217 213 210 218
35 43 105 149 186 249 263 321 28 157 216 208 186 142 104 103 137 181 15 37 42 42 39 40 43 41 25 14 47 71 340 253 244 237 217 209 209 212 216 219 220 219 220 224
163 148 176 146 164 242 279 39 196 222 188 167 156 124 111 112 115 96 62 50 44 42 38 38 41 37 27 28 44 43 9 317 333 6 246 233 226 226 231 228 233 231 228 232
182 179 172 178 203 226 202 188 239 167 144 150 133 115 116 113 102 82 63 51 46 44 39 35 40 35 27 27 38 35 0 4 25 30 10 338 310 283 263 243 246 249 239 239
223 129 118 130 249 208 133 99 67 104 105 101 103 105 104 99 88 73 60 49 41 35 35 34 39 36 24 18 29 27 18 33 39 29 10 356 343 326 315 294 269 259 255 253
199 148 125 133 152 97 42 67 104 99 92 89 88 89 93 91 79 72 59 45 37 31 25 34 38 32 19 16 21 21 25 36 34 19 2 347 334 318 308 297 281 271 260 254
206 170 167 185 182 152 161 154 119 107 103 100 94 82 75 82 79 68 52 35 32 26 23 26 26 25 17 21 18 12 17 33 31 10 351 336 328 319 310 305 303 286 274 272
Height
1515 1519 1522 1515 1512 1513 1513 1516 1520 1518 1512 1515 1518 1520 1520 1522 1524 1525 1527 1528 1529 1532 1535 1537 1539 1541 1543 1545 1547 1549 1551 1553 1554 1555 1555 1556 1556 1556 1555 1555 1554 1553 1552 1550
1519 1520 1505 1501 1502 1505 1509 1516 1519 1517 1512 1515 1520 1519 1517 1520 1521 1522 1523 1525 1529 1532 1534 1536 1538 1540 1542 1545 1547 1549 1550 1552 1553 1554 1555 1555 1555 1555 1554 1554 1553 1552 1551 1550
1519 1508 1497 1497 1500 1506 1510 1514 1516 1517 1515 1516 1521 1525 1520 1519 1520 1521 1522 1524 1526 1528 1531 1534 1537 1540 1542 1544 1546 1547 1549 1550 1552 1553 1554 1554 1554 1554 1553 1552 1552 1551 1550 1549
1509 1500 1497 1498 1501 1504 1515 1505 1506 1511 1522 1531 1527 1539 1524 1519 1520 1520 1521 1522 1523 1526 1529 1532 1535 1538 1540 1542 1544 1546 1547 1549 1550 1551 1552 1552 1552 1552 1551 1551 1550 1550 1549 1548
1507 1499 1498 1500 1498 1500 1508 1504 1508 1514 1524 1534 1532 1538 1531 1520 1521 1519 1519 1520 1522 1524 1527 1530 1533 1535 1538 1540 1542 1544 1546 1547 1548 1549 1550 1550 1549 1549 1549 1549 1548 1548 1548 1547
1500 1496 1495 1495 1492 1495 1502 1511 1517 1524 1531 1545 1538 1539 1534 1522 1516 1514 1515 1517 1519 1522 1525 1528 1531 1533 1535 1538 1540 1541 1543 1545 1546 1547 1547 1547 1547 1547 1547 1547 1546 1546 1545 1545
1507 1498 1493 1491 1496 1498 1503 1521 1539 1543 1552 1550 1535 1536 1530 1509 1506 1507 1510 1512 1516 1519 1522 1525 1527 1530 1532 1534 1536 1538 1540 1542 1543 1544 1544 1544 1545 1544 1544 1544 1544 1544 1543 1543
1520 1516 1495 1491 1494 1501 1502 1515 1537 1548 1554 1549 1537 1537 1519 1501 1500 1502 1505 1509 1512 1516 1518 1521 1523 1526 1528 1530 1532 1535 1537 1538 1540 1541 1542 1542 1542 1542 1542 1542 1541 1541 1541 1541
1518 1514 1492 1489 1488 1492 1502 1509 1512 1533 1542 1550 1542 1530 1512 1499 1499 1500 1503 1506 1509 1512 1514 1517 1519 1522 1524 1526 1528 1531 1533 1535 1537 1538 1539 1539 1539 1539 1539 1539 1539 1539 1539 1539
1506 1514 1498 1490 1489 1491 1494 1500 1516 1530 1546 1552 1544 1535 1526 1507 1502 1500 1501 1503 1504 1507 1510 1513 1515 1518 1520 1523 1525 1528 1530 1532 1533 1535 1535 1536 1536 1536 1536 1536 1536 1536 1537 1536
1502 1513 1506 1498 1501 1502 1499 1503 1511 1524 1530 1545 1550 1535 1502 1499 1497 1497 1497 1497 1500 1503 1505 1508 1511 1514 1517 1519 1522 1524 1526 1528 1530 1531 1532 1533 1533 1533 1534 1534 1534 1534 1533 1533
1499 1510 1515 1505 1497 1494 1496 1500 1509 1524 1526 1529 1536 1526 1487 1487 1487 1489 1491 1493 1495 1497 1500 1504 1507 1510 1513 1516 1518 1520 1522 1524 1526 1528 1529 1529 1530 1530 1530 1531 1531 1530 1530 1530
1495 1508 1523 1521 1514 1501 1497 1496 1499 1510 1520 1528 1531 1518 1485 1485 1485 1485 1487 1488 1491 1493 1497 1500 1503 1506 1509 1511 1514 1517 1519 1520 1522 1524 1525 1526 1526 1527 1527 1527 1527 1527 1526 1526
1490 1503 1515 1522 1517 1504 1501 1495 1493 1504 1520 1520 1515 1505 1491 1487 1484 1483 1484 1484 1486 1489 1493 1496 1499 1502 1505 1507 1510 1512 1514 1516 1518 1519 1520 1521 1522 1523 1523 1524 1523 1523 1522 1522
1488 1500 1498 1498 1493 1494 1495 1493 1490 1497 1502 1508 1504 1499 1492 1485 1482 1481 1482 1483 1485 1487 1490 1492 1495 1498 1501 1504 1506 1508 1510 1512 1513 1514 1515 1516 1518 1519 1519 1519 1519 1519 1518 1518
1488 1495 1495 1495 1489 1491 1493 1491 1490 1494 1495 1496 1497 1499 1491 1486 1483 1482 1483 1483 1484 1485 1487 1490 1492 1495 1497 1499 1501 1503 1505 1506 1508 1509 1510 1511 1512 1513 1514 1514 1514 1514 1513 1513
1490 1495 1502 1506 1494 1494 1503 1496 1495 1502 1502 1502 1508 1506 1495 1491 1487 1486 1485 1484 1485 1485 1487 1488 1490 1492 1493 1495 1497 1498 1500 1501 1503 1503 1505 1506 1507 1507 1508 1508 1509 1508 1508 1508
1488 1495 1504 1507 1503 1512 1505 1492 1492 1498 1503 1501 1500 1499 1496 1495 1492 1491 1488 1486 1486 1486 1487 1488 1488 1489 1490 1491 1492 1494 1495 1496 1497 1498 1499 1500 1501 1501 1502 1502 1502 1502 1503 1502
1481 1491 1502 1510 1513 1509 1499 1494 1494 1499 1506 1501 1499 1496 1493 1493 1490 1493 1493 1491 1488 1487 1487 1487 1487 1487 1488 1488 1488 1489 1490 1491 1492 1492 1492 1493 1494 1494 1495 1495 1496 1496 1496 1496
1485 1489 1501 1509 1513 1515 1501 1492 1491 1495 1507 1499 1496 1495 1493 1493 1500 1503 1498 1493 1490 1488 1487 1486 1485 1485 1485 1485 1485 1485 1485 1486 1486 1486 1486 1487 1488 1488 1489 1489 1489 1490 1489 1489
1496 1499 1503 1508 1510 1505 1493 1491 1492 1505 1503 1494 1493 1493 1493 1495 1501 1503 1499 1495 1492 1490 1489 1487 1486 1484 1484 1483 1483 1483 1483 1482 1482 1482 1482 1482 1483 1483 1483 1483 1483 1483 1482 1482
1496 1501 1503 1505 1509 1506 1491 1490 1494 1494 1489 1490 1491 1493 1494 1497 1500 1501 1499 1496 1494 1492 1490 1489 1487 1485 1484 1483 1481 1480 1479 1479 1479 1478 1478 1477 1477 1478 1478 1477 1477 1476 1475 1474
1488 1489 1492 1496 1497 1489 1488 1487 1488 1490 1491 1492 1493 1495 1496 1498 1499 1499 1498 1497 1495 1494 1492 1491 1489 1487 1485 1483 1481 1479 1478 1477 1476 1475 1474 1474 1474 1473 1472 1471 1470 1469 1468 1467
1483 1482 1487 1491 1490 1489 1489 1487 1489 1493 1493 1493 1495 1497 1498 1498 1499 1498 1498 1498 1497 1495 1493 1491 1489 1487 1485 1484 1482 1480 1478 1476 1474 1473 1472 1470 1469 1468 1467 1466 1464 1463 1461 1459
1478 1481 1486 1490 1489 1489 1491 1490 1491 1495 1496 1497 1498 1499 1499 1499 1499 1499 1499 1498 1498 1496 1494 1492 1490 1488 1486 1484 1481 1479 1477 1475 1473 1471 1469 1468 1465 1463 1461 1460 1458 1456 1454 1452
1474 1477 1481 1483 1483 1486 1490 1491 1492 1494 1497 1498 1499 1499 1500 1500 1501 1500 1500 1499 1498 1496 1494 1492 1489 1487 1485 1483 1481 1478 1476 1474 1471 1469 1466 1464 1461 1459 1456 1453 1450 1447 1445 1442